Location: Cazarilh
(42.9578°N, 0.5819°E)
Time: 23:21:42
(UTC+00:00)

DMSP B5D1-3 - Pass Details

Date: 11 December 2019
Orbit: 766 x 781 km, 98.5° (Epoch: 26 January)

Event Time Altitude Azimuth Distance (km) Brightness Sun altitude
Rises 05:53:33 0° 170° (S) 3,250 8.1 -14.9°
Reaches altitude 10° 05:55:51 10° 173° (S) 2,327 7.3 -14.5°
Maximum altitude 06:00:59 72° 257° (WSW) 825 4.5 -13.6°
Drops below altitude 10° 06:06:09 10° 342° (NNW) 2,346 6.7 -12.7°
Sets 06:08:30 0° 345° (NNW) 3,277 7.4 -12.3°
